Ogden, UT

9:29 PM MST on December 04, 2016 (GMT -0700)
Ogden-Hinckley

Weather History for KOGD - January, 2014

Change the Weather History Date:

Tuesday, January 14, 2014

  Actual Average Record
Temperature  
Mean Temperature 32 °F -  
Max Temperature 39 °F 36 °F 59 °F (1938)
Min Temperature 24 °F 20 °F -8 °F (1964)
Degree Days  
Heating Degree Days 34    
Moisture  
Dew Point 22 °F    
Average Humidity 67    
Maximum Humidity 78    
Minimum Humidity 55    
Precipitation  
Precipitation 0.00 in - - ()
Sea Level Pressure  
Sea Level Pressure 30.61 in    
Wind  
Wind Speed 4 mph (SSW)    
Max Wind Speed 9 mph    
Max Gust Speed -    
Visibility 10 miles    
Events      
Averages and records for this station are not official NWS values.
T = Trace of Precipitation, MM = Missing Value Source: NWS Daily Summary

Daily Weather History Graph

Daily Weather History Graph

Search for Another Location

Airport or City:

Trip Planner

Search our weather history database for the weather conditions in past years. The results will help you decide how hot, cold, wet, or windy it might be!

Date:

Astronomy

Jan. 14, 2014 Rise Set
Actual Time 7:51 AM MST 5:23 PM MST
Civil Twilight 7:21 AM MST 5:53 PM MST
Nautical Twilight 6:47 AM MST 6:27 PM MST
Astronomical Twilight 6:14 AM MST 7:00 PM MST
Moon 4:31 PM MST (1/14) 6:28 AM MST (1/14)
Length of Visible Light 10h 32m
Length of Day
9h 31m
Waxing Gibbous, 98% of the Moon is Illuminated
Jan 14
Waxing Gibbous
Jan 15
Full
Jan 23
Last Quarter
Jan 30
New
Feb 6
First Quarter

Hourly Weather History & Observations

Time (MST) Temp. Windchill Dew Point Humidity Pressure Visibility Wind Dir Wind Speed Gust Speed Precip Events Conditions
12:53 AM 30.0 °F 23.2 °F 19.9 °F 66% 30.47 in 10.0 mi South 6.9 mph - N/A   Clear
1:53 AM 28.0 °F - 19.9 °F 72% 30.48 in 10.0 mi Calm Calm - N/A   Clear
2:53 AM 25.0 °F - 19.0 °F 78% 30.52 in 10.0 mi Calm Calm - N/A   Clear
3:53 AM 27.0 °F - 19.9 °F 75% 30.52 in 10.0 mi North - - N/A   Clear
4:53 AM 25.0 °F 20.7 °F 18.0 °F 75% 30.54 in 10.0 mi South 3.5 mph - N/A   Clear
5:53 AM 24.1 °F 18.2 °F 17.1 °F 75% 30.56 in 10.0 mi SSW 4.6 mph - N/A   Clear
6:53 AM 25.0 °F 18.1 °F 18.0 °F 75% 30.58 in 10.0 mi South 5.8 mph - N/A   Clear
7:53 AM 28.0 °F 21.7 °F 21.0 °F 75% 30.60 in 10.0 mi South 5.8 mph - N/A   Clear
8:53 AM 27.0 °F 19.5 °F 19.9 °F 75% 30.64 in 10.0 mi SSE 6.9 mph - N/A   Clear
9:53 AM 30.9 °F 24.3 °F 21.9 °F 69% 30.65 in 10.0 mi South 6.9 mph - N/A   Clear
10:53 AM 37.0 °F 34.5 °F 25.0 °F 62% 30.64 in 10.0 mi NNW 3.5 mph - N/A   Clear
11:53 AM 37.9 °F - 24.1 °F 57% 30.65 in 10.0 mi Calm Calm - N/A   Clear
12:53 PM 39.0 °F - 24.1 °F 55% 30.63 in 10.0 mi Calm Calm - N/A   Clear
1:53 PM 39.0 °F 36.8 °F 24.1 °F 55% 30.62 in 10.0 mi NW 3.5 mph - N/A   Clear
2:53 PM 39.0 °F 35.7 °F 25.0 °F 57% 30.63 in 10.0 mi NW 4.6 mph - N/A   Clear
3:53 PM 39.0 °F 36.8 °F 24.1 °F 55% 30.63 in 10.0 mi NW 3.5 mph - N/A   Clear
4:53 PM 37.0 °F 34.5 °F 25.0 °F 62% 30.64 in 10.0 mi NW 3.5 mph - N/A   Clear
5:53 PM 36.0 °F - 24.1 °F 62% 30.65 in 10.0 mi Calm Calm - N/A   Clear
6:53 PM 35.1 °F - 24.1 °F 64% 30.66 in 10.0 mi Calm Calm - N/A   Clear
7:53 PM 32.0 °F 26.4 °F 23.0 °F 69% 30.66 in 10.0 mi South 5.8 mph - N/A   Clear
8:53 PM 30.0 °F 22.4 °F 21.0 °F 69% 30.67 in 10.0 mi South 8.1 mph - N/A   Clear
9:53 PM 28.0 °F 20.0 °F 19.9 °F 72% 30.67 in 10.0 mi South 8.1 mph - N/A   Clear
10:53 PM 28.0 °F 24.2 °F 19.9 °F 72% 30.66 in 10.0 mi SE 3.5 mph - N/A   Clear
11:53 PM 26.1 °F 16.8 °F 18.0 °F 71% 30.63 in 10.0 mi South 9.2 mph - N/A   Clear